SCP
-0 -0 -0 -0 0 0 0 0 -0 0 -0 -0 -0 0 -0 -0 -0 -0 0 0 0 0 0 0 -0 -0 -0 -0 0 -0 -0 -0 -0 -0 -0 -0 -0 -0 -0 -0 -0 -0 -0 -0 -0 -0 -0 -0 -0
-0 -0 0 0 0 0 0 0 -0 -0 0 0 0 0 -0 -0 0 -0 -0 0 0 0 0 0 -0 -0 -0 0 -0 -0 -0 -0 -0 -0 -0 -0 -0 -0 -0 -0 -0 -0 -0 -0 -0 -0 -0 0 -0
-0 -0 0 0 0 0 -0 -0 -0 -0 0 -0 -0 -0 -0 0 -0 0 -0 0 -0 0 -0 -0 -0 0 -0 -0 -0 -0 -0 -0 -0 -0 -0 -0 -0 -0 -0 -0 -0 -0 -0 -0 -0 -0 -0 0 0
0 0 0 0 -0 0 0 0 -0 -0 0 -0 0 0 0 0 0 -0 0 -0 -0 0 -0 -0 -0 0 -0 -0 0 -0 -0 -0 -0 -0 -0 0 -0 -0 -0 -0 -0 -0 -0 -0 -0 -0 0 0 -0
0 0 0 -0 0 -0 -0 0 -0 -0 0 0 -0 -0 -0 0 -0 0 0 0 -0 -0 -0 -0 -0 -0 -0 -0 -0 -0 -0 -0 -0 -0 -0 0 0 -0 -0 -0 -0 -0 -0 0 0 -0 -0 0 -0
0 0 0 -0 -0 0 0 0 0 -0 0 0 -0 -0 0 0 -0 0 0 0 0 -0 -0 -0 -0 -0 -0 -0 -0 -0 -0 -0 -0 -0 -0 0 0 -0 -0 -0 -0 0 0 -0 -0 0 0 -0 -0
0 0 0 0 -0 -0 0 0 0 0 0 -0 -0 -0 -0 -0 0 0 0 0 0 -0 -0 -0 -0 -0 -0 -0 -0 -0 -0 -0 -0 0 0 0 0 -0 -0 -0 0 0 0 0 0 0 -0 -0 -0
0 0 -0 0 0 0 0 0 0 0 0 0 -0 0 -0 -0 0 0 0 -0 -0 -0 -0 0 0 0 0 0 -0 -0 0 0 0 0 0 -0 0 -0 -0 0 -0 -0 -0 -0 -0 -0 -0 0 0
-0 0 0 0 -0 -0 -0 0 0 0 0 0 0 -0 -0 -0 0 0 0 -0 0 0 0 -0 0 0 -0 -0 0 0 0 0 -0 0 0 0 0 -0 0 0 -0 -0 -0 -0 -0 0 0 -0 0
0 -0 -0 -0 -0 -0 -0 -0 -0 0 0 0 0 -0 -0 -0 0 0 0 -0 -0 -0 -0 0 -0 0 0 0 0 0 0 0 0 0 0 0 -0 -0 0 -0 -0 0 0 0 0 0 -0 0 0
0 0 -0 -0 -0 -0 -0 -0 -0 0 0 0 -0 -0 -0 -0 0 0 0 0 0 0 -0 -0 0 -0 0 0 0 0 -0 0 -0 0 0 -0 -0 -0 0 0 0 0 0 0 0 0 0 0 0
0 -0 0 -0 0 -0 -0 -0 -0 0 0 0 0 -0 -0 -0 0 0 -0 0 0 0 0 0 0 0 0 0 0 -0 -0 0 0 -0 -0 -0 0 0 0 -0 0 0 0 -0 0 -0 0 0 0
-0 0 0 -0 -0 -0 -0 -0 -0 0 0 0 0 -0 -0 0 0 0 -0 0 0 0 0 -0 0 0 0 0 -0 0 0 -0 0 0 0 0 -0 0 0 0 0 0 0 0 0 0 -0 0 -0
0 -0 0 -0 -0 -0 -0 -0 -0 0 0 0 0 0 0 0 -0 0 -0 0 0 0 0 -0 0 0 0 -0 0 0 0 0 -0 0 -0 0 -0 0 0 0 0 -0 -0 0 0 0 0 0 -0
0 0 -0 -0 -0 0 -0 -0 -0 0 0 -0 0 0 0 0 0 0 0 0 0 0 0 0 -0 -0 -0 0 0 0 -0 -0 -0 -0 -0 0 0 0 0 0 0 0 0 0 0 0 0 0 0
0 0 0 -0 -0 -0 0 -0 -0 0 0 -0 -0 0 0 0 -0 0 0 0 0 0 0 0 0 -0 0 -0 -0 0 -0 -0 0 -0 0 0 0 0 0 0 0 -0 0 0 0 0 0 -0 -0
0 -0 0 0 0 -0 -0 -0 -0 -0 0 0 0 0 0 0 -0 0 0 0 0 0 0 0 0 -0 -0 0 0 0 0 0 0 0 0 0 0 0 0 0 0 0 0 0 0 0 0 0 0
0 0 0 0 0 0 -0 -0 -0 -0 -0 -0 0 0 -0 0 -0 0 0 0 0 0 0 0 0 0 -0 0 -0 -0 0 0 0 0 0 0 0 0 0 -0 0 0 0 0 -0 0 0 0 0
-0 0 0 0 0 0 -0 -0 -0 -0 0 0 -0 0 0 -0 0 -0 0 0 0 0 0 0 0 0 -0 -0 0 -0 -0 -0 0 0 -0 -0 0 0 0 -0 0 -0 0 0 0 0 0 0 0
0 0 -0 0 0 0 0 -0 -0 0 -0 0 0 0 0 -0 -0 0 0 0 0 0 0 0 0 0 -0 -0 0 0 0 -0 0 0 -0 0 -0 0 0 0 0 0 0 0 0 0 0 -0 0
0 0 0 0 0 -0 0 0 -0 0 0 0 0 -0 0 0 0 0 0 0 0 0 0 0 0 0 -0 0 0 0 0 -0 0 0 0 0 -0 0 0 0 -0 0 0 -0 -0 0 0 0 0
0 0 0 0 0 0 0 0 0 -0 0 0 0 0 0 0 0 0 0 0 0 0 0 0 0 0 -0 0 -0 0 -0 -0 0 0 0 0 0 -0 -0 0 0 0 0 0 -0 0 0 0 0
0 0 0 0 0 0 0 0 0 0 0 0 0 -0 -0 -0 0 0 0 0 -0 0 0 0 0 -0 -0 -0 0 0 -0 0 0 0 0 0 0 0 0 0 0 0 0 0 0 0 0 0 -0
0 0 0 0 0 0 0 0 0 0 0 0 0 0 0 -0 0 -0 0 0 -0 -0 -0 -0 0 -0 -0 -0 -0 0 0 0 0 0 0 0 -0 -0 0 -0 0 0 0 -0 0 0 0 0 -0
0 0 0 0 0 0 0 0 0 0 0 0 0 0 0 -0 -0 -0 0 0 0 0 -0 -0 -0 -0 -0 -0 -0 0 0 0 0 0 0 -0 0 0 -0 -0 0 0 0 -0 0 -0 0 0 0
0 0 0 0 0 0 0 0 0 0 0 0 0 0 0 -0 -0 -0 -0 -0 0 -0 -0 0 -0 0 -0 -0 -0 0 0 0 0 0 0 0 0 0 -0 0 -0 0 -0 0 0 0 0 0 -0
0 0 0 0 -0 0 0 0 0 0 0 0 0 0 1 0 -0 -0 0 0 0 0 0 0 0 0 0 0 0 0 0 -0 0 0 0 0 0 0 0 0 -0 -0 0 0 -0 0 0 0 -0
0 0 0 0 0 0 0 0 0 0 0 0 0 0 0 0 0 0 0 0 0 0 0 0 0 0 0 0 0 0 0 0 0 0 0 0 0 0 0 0 0 0 -0 0 -0 -0 0 -0 0
0 0 0 0 0 0 0 0 0 0 0 0 0 0 0 0 0 1 0 0 0 0 0 0 0 0 0 0 0 0 0 0 0 0 0 0 0 0 0 0 0 0 -0 -0 0 -0 0 0 -0
0 0 0 0 0 0 0 0 0 0 0 0 0 0 0 0 0 0 0 0 -0 1 0 0 0 0 0 0 0 0 0 0 0 0 0 0 0 0 0 0 0 0 0 -0 0 -0 0 0 -0
Wind_Speed_500mb
14 13 11 13 7 8 3 12 12 28 20 23 21 24 32 48 22 18 62 49 49 41 38 34 32 31 29 27 25 23 21 19 17 17 18 20 19 19 23 21 22 25 27 31 33 35 35 34 34
11 15 9 3 9 6 6 24 22 18 33 36 27 28 34 31 24 66 57 52 47 41 35 30 29 27 25 24 23 22 22 20 21 20 22 20 23 24 22 24 25 25 29 31 33 37 37 34 32
18 16 7 5 9 5 12 16 24 38 40 34 33 29 22 22 57 49 57 54 48 40 35 30 29 24 23 20 22 21 19 20 19 20 23 22 22 22 21 24 26 27 29 31 36 37 35 40 36
15 10 17 6 20 24 24 28 37 42 25 25 31 25 25 33 42 54 57 51 45 37 32 30 26 23 19 17 20 17 18 19 19 21 22 23 23 25 26 25 28 29 32 34 34 36 32 38 35
20 12 11 8 28 26 28 31 38 32 26 25 22 32 44 40 45 56 53 47 42 39 27 25 25 21 20 18 15 15 17 18 18 19 21 22 23 25 26 27 29 31 34 34 31 32 27 28 29
6 10 8 13 25 20 24 21 24 38 31 28 44 44 26 37 57 52 49 43 40 34 31 23 28 23 19 16 15 16 17 18 17 19 21 23 24 25 27 28 30 33 34 35 27 33 27 21 23
14 10 2 12 24 26 17 19 19 31 24 17 17 32 37 53 54 50 46 42 36 34 26 21 18 18 17 16 19 18 19 19 17 21 22 25 25 27 25 27 34 34 36 33 30 32 22 23 27
10 8 15 6 14 14 22 12 15 22 22 21 23 22 52 63 55 49 45 43 35 29 24 32 18 19 19 18 20 19 17 17 20 25 27 30 33 35 34 29 35 36 38 33 34 25 25 29 32
13 6 8 10 13 22 36 16 5 8 21 8 9 55 62 63 55 49 45 40 34 26 27 29 21 20 20 19 20 20 21 20 24 30 36 27 27 24 28 28 38 34 37 31 25 25 27 37 44
11 5 14 16 22 26 27 19 18 8 20 22 30 57 62 59 55 50 46 44 38 30 28 27 25 26 22 22 20 19 19 23 22 15 39 24 22 26 27 34 34 33 31 32 32 27 21 15 13
11 8 4 24 27 30 30 29 16 15 15 29 45 64 64 58 52 48 44 40 38 32 29 26 31 20 21 16 24 14 27 20 18 20 21 21 28 33 27 33 32 32 31 19 19 18 21 19 15
10 20 16 13 17 18 22 31 22 13 12 20 41 60 63 56 51 48 44 40 38 33 30 30 26 23 21 23 19 18 19 18 21 21 21 32 23 22 19 23 26 25 17 11 28 15 16 18 24
11 24 5 7 16 25 24 27 27 23 17 25 41 61 59 53 47 43 40 38 36 33 30 25 25 21 25 19 22 21 23 23 17 20 11 20 22 23 22 21 13 19 13 10 16 14 19 21 27
22 19 5 7 16 21 26 30 25 17 24 33 54 64 58 50 46 43 41 36 36 34 31 26 25 22 24 18 25 19 19 22 20 17 21 20 21 24 21 20 17 4 8 20 18 33 14 22 15
7 19 17 14 22 21 35 23 23 26 33 45 54 60 53 48 43 41 38 36 34 35 33 29 25 23 24 20 29 22 19 21 20 18 21 20 18 11 15 15 17 10 10 18 11 24 15 13 15
26 26 23 24 27 17 19 21 35 29 35 49 56 55 49 46 43 39 36 34 33 33 34 31 26 25 25 21 24 21 19 11 22 17 13 13 15 14 18 14 9 12 8 10 7 15 15 11 19
27 28 31 24 16 24 17 35 40 38 39 43 49 51 49 45 42 38 37 34 33 33 34 34 29 28 27 24 18 24 19 20 18 11 12 12 9 17 11 14 8 18 13 0 16 14 17 13 12
35 36 38 19 21 25 26 38 38 39 42 40 47 44 47 45 43 40 38 36 34 32 32 31 30 29 28 25 20 17 16 19 13 14 17 10 6 17 16 13 11 18 11 6 20 12 4 16 5
32 31 25 22 30 20 22 38 38 41 41 45 46 41 38 46 43 41 38 37 36 33 32 32 31 31 29 25 21 20 15 18 12 16 9 12 7 8 18 10 13 17 10 15 13 14 8 6 2
38 39 35 7 20 15 28 34 31 39 34 41 41 44 41 47 47 43 39 39 38 37 36 34 33 32 32 24 22 15 22 16 13 12 11 11 10 11 11 8 10 19 15 9 8 10 8 7 3
36 31 28 23 18 28 26 33 38 20 20 23 38 38 47 48 51 49 42 39 37 39 39 37 36 33 35 26 23 18 11 13 11 16 13 13 11 8 14 20 15 13 18 10 12 13 6 7 1
35 35 38 41 29 23 36 18 37 43 25 31 27 24 36 43 54 52 47 44 39 38 39 36 35 34 34 32 28 21 19 15 18 13 13 11 13 16 9 10 6 13 7 17 11 11 3 6 10
26 18 12 21 33 22 43 17 24 36 32 31 41 39 44 46 52 61 54 50 42 41 40 37 35 36 35 35 26 24 23 15 19 20 18 18 17 14 14 13 12 17 17 20 11 11 12 6 5
7 35 25 25 28 25 27 21 26 30 30 32 26 34 39 48 54 49 55 56 51 46 43 39 38 37 38 34 37 30 20 19 13 16 14 12 13 13 17 15 18 12 9 9 14 14 12 9 13
19 26 22 23 27 23 36 14 16 25 12 18 17 24 35 44 67 57 58 59 57 54 50 44 42 40 39 37 33 33 25 19 12 18 18 23 18 18 22 13 15 13 19 11 16 17 16 15 11
35 41 25 26 27 28 22 23 21 25 23 22 21 9 15 44 49 61 61 61 64 61 54 49 45 42 40 41 40 34 29 22 21 23 20 17 16 13 17 13 17 17 16 15 18 13 16 16 15
35 40 50 30 35 29 26 30 27 26 25 30 16 14 25 11 57 53 51 62 70 65 60 55 49 44 40 41 40 40 36 31 27 27 22 21 19 14 20 16 18 19 17 17 16 15 17 13 19
25 31 38 20 28 33 31 35 27 28 23 16 22 25 29 24 15 30 61 65 58 78 64 56 50 45 41 37 39 38 37 35 37 29 31 26 21 20 34 22 16 16 18 19 17 19 19 20 17
22 25 30 27 31 24 26 17 35 28 22 19 22 26 30 33 29 17 11 37 56 55 63 60 51 46 39 36 36 38 38 38 35 35 33 31 36 30 20 15 30 21 20 20 22 26 13 20 22
21 22 34 22 36 27 10 20 31 29 39 33 26 25 28 29 29 38 32 17 28 32 29 50 50 48 44 38 35 36 37 36 36 36 35 33 31 32 33 28 31 28 27 27 26 24 23 25 22
Wind_Direction_500mb
167 143 214 206 234 229 236 103 150 113 119 135 110 107 71 38 43 90 138 139 140 137 139 134 136 131 126 121 116 111 115 107 100 93 89 87 91 100 97 109 107 108 104 98 95 93 90 87 89
148 175 180 195 248 181 94 102 117 136 120 111 118 110 97 58 100 127 133 142 138 140 132 135 134 133 128 118 112 104 104 103 90 83 83 85 86 101 100 109 108 110 105 103 99 97 93 86 82
169 200 239 203 239 56 111 123 133 119 120 107 97 58 41 91 123 128 136 139 138 136 141 152 135 136 135 122 107 104 100 99 93 88 89 94 89 92 105 102 103 107 108 106 101 99 90 82 84
183 252 257 142 118 104 115 115 128 103 89 114 115 91 85 129 127 135 136 138 139 136 142 143 136 138 132 122 114 111 106 104 95 93 90 93 94 93 101 107 105 110 107 109 108 100 85 80 81
228 247 256 144 94 106 113 120 124 106 110 109 68 96 118 124 132 136 136 139 139 139 135 133 131 132 130 122 111 110 109 108 102 97 96 94 96 96 102 109 108 111 110 105 103 111 77 71 71
244 253 257 134 121 110 93 358 117 113 106 106 105 113 116 135 140 140 139 139 139 135 136 132 129 130 124 122 110 113 114 112 109 106 100 95 98 95 98 105 111 110 111 115 118 98 81 74 82
240 268 215 143 129 111 100 44 19 127 135 127 102 117 138 144 144 142 142 140 138 137 138 135 133 132 130 124 124 121 119 116 112 107 101 95 93 91 101 106 117 112 110 107 108 107 87 88 94
263 271 320 87 158 129 128 91 45 72 71 130 133 139 147 149 147 145 144 142 142 141 139 135 132 121 114 114 121 114 111 115 113 101 90 83 76 87 82 107 118 112 116 127 122 119 98 92 95
249 281 58 43 124 127 130 117 30 113 123 164 111 142 146 148 148 149 149 141 145 136 139 139 127 144 137 114 113 110 101 96 101 103 91 91 88 85 96 131 118 113 122 128 113 103 97 80 81
217 219 38 57 107 139 132 125 143 158 138 122 118 137 146 150 152 154 155 150 150 151 145 128 132 121 113 125 104 107 121 108 104 112 101 83 123 113 113 115 114 109 112 109 96 63 80 139 79
248 126 107 74 93 119 137 137 142 165 128 144 142 148 152 154 155 157 157 156 151 149 140 144 135 128 130 141 108 116 98 111 127 137 107 116 99 103 107 101 98 99 108 106 72 75 73 24 89
227 215 156 113 128 117 128 131 159 167 125 141 150 157 155 158 159 160 158 158 150 150 143 141 138 137 124 129 115 116 121 117 119 108 112 95 113 117 120 116 127 122 61 140 131 89 94 84 78
186 258 179 155 143 109 127 143 145 121 117 150 159 162 160 161 161 159 159 154 155 154 153 141 146 141 142 123 149 115 124 124 114 113 128 112 117 117 122 127 134 118 125 102 81 78 86 82 88
201 233 195 212 151 133 136 134 130 134 131 142 159 161 162 162 162 160 164 156 160 157 156 155 153 150 146 132 137 126 115 122 125 125 129 110 125 122 122 129 132 173 133 97 130 72 88 104 102
222 225 209 172 139 144 140 131 113 136 138 145 158 161 162 164 162 165 167 164 164 160 159 160 157 156 148 149 135 121 128 124 129 136 126 132 121 128 132 122 133 107 116 92 88 107 91 111 85
220 241 185 142 168 144 189 118 131 145 153 156 161 162 163 167 165 170 171 170 167 164 162 161 160 163 154 155 131 133 147 151 125 143 144 138 145 142 113 130 155 134 141 122 110 86 114 86 86
207 205 134 167 163 152 135 131 138 145 152 161 169 167 170 170 171 173 174 174 171 168 166 163 165 165 161 166 157 151 161 160 148 145 173 156 162 167 144 145 172 137 120 127 118 113 99 122 131
195 227 152 167 181 202 120 120 151 159 156 171 181 175 177 177 177 176 177 176 175 173 170 168 167 170 165 165 165 165 171 145 168 164 183 167 187 151 150 150 137 137 134 172 141 130 144 95 115
218 217 250 159 151 176 160 133 155 172 185 172 181 187 193 185 179 178 182 181 178 176 174 174 171 177 170 171 166 171 175 169 154 166 162 183 169 190 150 169 166 166 136 120 113 96 111 109 5
256 215 173 95 148 222 135 138 142 172 160 169 182 180 198 194 179 179 179 179 183 182 180 180 179 183 176 179 180 185 185 181 179 188 171 181 180 193 188 131 172 186 163 175 173 203 165 107 9
237 218 140 166 178 233 167 135 140 165 158 169 177 195 193 205 181 179 182 182 184 187 186 185 183 189 184 189 191 200 194 130 168 184 171 183 182 181 172 191 215 185 183 163 133 161 255 151 66
206 231 153 214 190 194 196 159 166 154 168 173 177 192 208 212 182 182 188 187 185 184 184 186 185 190 191 190 189 197 191 193 190 186 182 174 176 186 193 186 174 165 219 160 169 204 186 120 135
224 170 205 191 217 202 195 123 306 152 161 174 172 206 197 203 196 191 189 194 195 183 185 187 187 190 191 198 187 201 199 233 151 189 182 185 194 189 179 198 202 187 181 195 192 196 189 178 164
281 164 197 223 238 239 219 192 204 167 173 178 188 188 208 191 209 206 194 194 198 187 190 191 194 198 193 202 200 196 215 216 202 199 167 192 196 190 181 190 203 198 215 203 202 211 214 214 209
171 194 193 209 218 226 219 161 102 73 58 102 158 208 198 195 189 198 202 199 195 196 193 193 201 202 205 208 208 216 217 227 231 201 210 202 193 190 216 226 198 205 202 200 196 219 194 231 211
205 208 204 193 206 207 207 138 118 122 116 80 31 7 243 209 202 193 197 204 196 198 194 197 199 207 210 212 217 220 217 222 222 216 205 202 209 196 220 206 216 193 215 205 217 223 216 232 227
192 234 227 271 208 211 133 91 125 115 94 66 49 7 9 241 190 200 201 193 200 196 193 196 200 208 210 215 217 222 225 213 214 217 222 234 233 216 186 202 203 205 209 214 228 206 238 220 215
269 226 239 245 249 213 134 160 147 140 97 67 41 32 24 12 210 176 191 203 208 192 192 195 200 205 208 210 217 220 219 223 213 213 218 217 230 242 255 187 222 210 214 215 213 216 231 224 216
213 241 244 246 260 213 154 117 114 115 99 88 59 41 31 40 44 58 113 216 213 193 191 194 200 206 210 212 214 216 218 219 220 219 221 224 221 220 250 227 221 223 227 231 230 207 227 244 223
301 242 218 243 230 271 2 95 100 132 123 99 80 57 51 48 46 53 51 23 111 148 171 198 197 208 213 216 216 219 220 219 223 225 224 226 229 226 221 236 235 224 231 232 236 238 226 233 236
Wind_Speed_850mb
14 13 11 13 7 8 3 12 12 28 20 23 21 24 32 48 22 18 62 49 49 41 38 34 32 31 29 27 25 23 21 19 17 17 18 20 19 19 23 21 22 25 27 31 33 35 35 34 34
11 15 9 3 9 6 6 24 22 18 33 36 27 28 34 31 24 66 57 52 47 41 35 30 29 27 25 24 23 22 22 20 21 20 22 20 23 24 22 24 25 25 29 31 33 37 37 34 32
18 16 7 5 9 5 12 16 24 38 40 34 33 29 22 22 57 49 57 54 48 40 35 30 29 24 23 20 22 21 19 20 19 20 23 22 22 22 21 24 26 27 29 31 36 37 35 40 36
15 10 17 6 20 24 24 28 37 42 25 25 31 25 25 33 42 54 57 51 45 37 32 30 26 23 19 17 20 17 18 19 19 21 22 23 23 25 26 25 28 29 32 34 34 36 32 38 35
20 12 11 8 28 26 28 31 38 32 26 25 22 32 44 40 45 56 53 47 42 39 27 25 25 21 20 18 15 15 17 18 18 19 21 22 23 25 26 27 29 31 34 34 31 32 27 28 29
6 10 8 13 25 20 24 21 24 38 31 28 44 44 26 37 57 52 49 43 40 34 31 23 28 23 19 16 15 16 17 18 17 19 21 23 24 25 27 28 30 33 34 35 27 33 27 21 23
14 10 2 12 24 26 17 19 19 31 24 17 17 32 37 53 54 50 46 42 36 34 26 21 18 18 17 16 19 18 19 19 17 21 22 25 25 27 25 27 34 34 36 33 30 32 22 23 27
10 8 15 6 14 14 22 12 15 22 22 21 23 22 52 63 55 49 45 43 35 29 24 32 18 19 19 18 20 19 17 17 20 25 27 30 33 35 34 29 35 36 38 33 34 25 25 29 32
13 6 8 10 13 22 36 16 5 8 21 8 9 55 62 63 55 49 45 40 34 26 27 29 21 20 20 19 20 20 21 20 24 30 36 27 27 24 28 28 38 34 37 31 25 25 27 37 44
11 5 14 16 22 26 27 19 18 8 20 22 30 57 62 59 55 50 46 44 38 30 28 27 25 26 22 22 20 19 19 23 22 15 39 24 22 26 27 34 34 33 31 32 32 27 21 15 13
11 8 4 24 27 30 30 29 16 15 15 29 45 64 64 58 52 48 44 40 38 32 29 26 31 20 21 16 24 14 27 20 18 20 21 21 28 33 27 33 32 32 31 19 19 18 21 19 15
10 20 16 13 17 18 22 31 22 13 12 20 41 60 63 56 51 48 44 40 38 33 30 30 26 23 21 23 19 18 19 18 21 21 21 32 23 22 19 23 26 25 17 11 28 15 16 18 24
11 24 5 7 16 25 24 27 27 23 17 25 41 61 59 53 47 43 40 38 36 33 30 25 25 21 25 19 22 21 23 23 17 20 11 20 22 23 22 21 13 19 13 10 16 14 19 21 27
22 19 5 7 16 21 26 30 25 17 24 33 54 64 58 50 46 43 41 36 36 34 31 26 25 22 24 18 25 19 19 22 20 17 21 20 21 24 21 20 17 4 8 20 18 33 14 22 15
7 19 17 14 22 21 35 23 23 26 33 45 54 60 53 48 43 41 38 36 34 35 33 29 25 23 24 20 29 22 19 21 20 18 21 20 18 11 15 15 17 10 10 18 11 24 15 13 15
26 26 23 24 27 17 19 21 35 29 35 49 56 55 49 46 43 39 36 34 33 33 34 31 26 25 25 21 24 21 19 11 22 17 13 13 15 14 18 14 9 12 8 10 7 15 15 11 19
27 28 31 24 16 24 17 35 40 38 39 43 49 51 49 45 42 38 37 34 33 33 34 34 29 28 27 24 18 24 19 20 18 11 12 12 9 17 11 14 8 18 13 0 16 14 17 13 12
35 36 38 19 21 25 26 38 38 39 42 40 47 44 47 45 43 40 38 36 34 32 32 31 30 29 28 25 20 17 16 19 13 14 17 10 6 17 16 13 11 18 11 6 20 12 4 16 5
32 31 25 22 30 20 22 38 38 41 41 45 46 41 38 46 43 41 38 37 36 33 32 32 31 31 29 25 21 20 15 18 12 16 9 12 7 8 18 10 13 17 10 15 13 14 8 6 2
38 39 35 7 20 15 28 34 31 39 34 41 41 44 41 47 47 43 39 39 38 37 36 34 33 32 32 24 22 15 22 16 13 12 11 11 10 11 11 8 10 19 15 9 8 10 8 7 3
36 31 28 23 18 28 26 33 38 20 20 23 38 38 47 48 51 49 42 39 37 39 39 37 36 33 35 26 23 18 11 13 11 16 13 13 11 8 14 20 15 13 18 10 12 13 6 7 1
35 35 38 41 29 23 36 18 37 43 25 31 27 24 36 43 54 52 47 44 39 38 39 36 35 34 34 32 28 21 19 15 18 13 13 11 13 16 9 10 6 13 7 17 11 11 3 6 10
26 18 12 21 33 22 43 17 24 36 32 31 41 39 44 46 52 61 54 50 42 41 40 37 35 36 35 35 26 24 23 15 19 20 18 18 17 14 14 13 12 17 17 20 11 11 12 6 5
7 35 25 25 28 25 27 21 26 30 30 32 26 34 39 48 54 49 55 56 51 46 43 39 38 37 38 34 37 30 20 19 13 16 14 12 13 13 17 15 18 12 9 9 14 14 12 9 13
19 26 22 23 27 23 36 14 16 25 12 18 17 24 35 44 67 57 58 59 57 54 50 44 42 40 39 37 33 33 25 19 12 18 18 23 18 18 22 13 15 13 19 11 16 17 16 15 11
35 41 25 26 27 28 22 23 21 25 23 22 21 9 15 44 49 61 61 61 64 61 54 49 45 42 40 41 40 34 29 22 21 23 20 17 16 13 17 13 17 17 16 15 18 13 16 16 15
35 40 50 30 35 29 26 30 27 26 25 30 16 14 25 11 57 53 51 62 70 65 60 55 49 44 40 41 40 40 36 31 27 27 22 21 19 14 20 16 18 19 17 17 16 15 17 13 19
25 31 38 20 28 33 31 35 27 28 23 16 22 25 29 24 15 30 61 65 58 78 64 56 50 45 41 37 39 38 37 35 37 29 31 26 21 20 34 22 16 16 18 19 17 19 19 20 17
22 25 30 27 31 24 26 17 35 28 22 19 22 26 30 33 29 17 11 37 56 55 63 60 51 46 39 36 36 38 38 38 35 35 33 31 36 30 20 15 30 21 20 20 22 26 13 20 22
21 22 34 22 36 27 10 20 31 29 39 33 26 25 28 29 29 38 32 17 28 32 29 50 50 48 44 38 35 36 37 36 36 36 35 33 31 32 33 28 31 28 27 27 26 24 23 25 22
Wind_Direction_850mb
167 143 214 206 234 229 236 103 150 113 119 135 110 107 71 38 43 90 138 139 140 137 139 134 136 131 126 121 116 111 115 107 100 93 89 87 91 100 97 109 107 108 104 98 95 93 90 87 89
148 175 180 195 248 181 94 102 117 136 120 111 118 110 97 58 100 127 133 142 138 140 132 135 134 133 128 118 112 104 104 103 90 83 83 85 86 101 100 109 108 110 105 103 99 97 93 86 82
169 200 239 203 239 56 111 123 133 119 120 107 97 58 41 91 123 128 136 139 138 136 141 152 135 136 135 122 107 104 100 99 93 88 89 94 89 92 105 102 103 107 108 106 101 99 90 82 84
183 252 257 142 118 104 115 115 128 103 89 114 115 91 85 129 127 135 136 138 139 136 142 143 136 138 132 122 114 111 106 104 95 93 90 93 94 93 101 107 105 110 107 109 108 100 85 80 81
228 247 256 144 94 106 113 120 124 106 110 109 68 96 118 124 132 136 136 139 139 139 135 133 131 132 130 122 111 110 109 108 102 97 96 94 96 96 102 109 108 111 110 105 103 111 77 71 71
244 253 257 134 121 110 93 358 117 113 106 106 105 113 116 135 140 140 139 139 139 135 136 132 129 130 124 122 110 113 114 112 109 106 100 95 98 95 98 105 111 110 111 115 118 98 81 74 82
240 268 215 143 129 111 100 44 19 127 135 127 102 117 138 144 144 142 142 140 138 137 138 135 133 132 130 124 124 121 119 116 112 107 101 95 93 91 101 106 117 112 110 107 108 107 87 88 94
263 271 320 87 158 129 128 91 45 72 71 130 133 139 147 149 147 145 144 142 142 141 139 135 132 121 114 114 121 114 111 115 113 101 90 83 76 87 82 107 118 112 116 127 122 119 98 92 95
249 281 58 43 124 127 130 117 30 113 123 164 111 142 146 148 148 149 149 141 145 136 139 139 127 144 137 114 113 110 101 96 101 103 91 91 88 85 96 131 118 113 122 128 113 103 97 80 81
217 219 38 57 107 139 132 125 143 158 138 122 118 137 146 150 152 154 155 150 150 151 145 128 132 121 113 125 104 107 121 108 104 112 101 83 123 113 113 115 114 109 112 109 96 63 80 139 79
248 126 107 74 93 119 137 137 142 165 128 144 142 148 152 154 155 157 157 156 151 149 140 144 135 128 130 141 108 116 98 111 127 137 107 116 99 103 107 101 98 99 108 106 72 75 73 24 89
227 215 156 113 128 117 128 131 159 167 125 141 150 157 155 158 159 160 158 158 150 150 143 141 138 137 124 129 115 116 121 117 119 108 112 95 113 117 120 116 127 122 61 140 131 89 94 84 78
186 258 179 155 143 109 127 143 145 121 117 150 159 162 160 161 161 159 159 154 155 154 153 141 146 141 142 123 149 115 124 124 114 113 128 112 117 117 122 127 134 118 125 102 81 78 86 82 88
201 233 195 212 151 133 136 134 130 134 131 142 159 161 162 162 162 160 164 156 160 157 156 155 153 150 146 132 137 126 115 122 125 125 129 110 125 122 122 129 132 173 133 97 130 72 88 104 102
222 225 209 172 139 144 140 131 113 136 138 145 158 161 162 164 162 165 167 164 164 160 159 160 157 156 148 149 135 121 128 124 129 136 126 132 121 128 132 122 133 107 116 92 88 107 91 111 85
220 241 185 142 168 144 189 118 131 145 153 156 161 162 163 167 165 170 171 170 167 164 162 161 160 163 154 155 131 133 147 151 125 143 144 138 145 142 113 130 155 134 141 122 110 86 114 86 86
207 205 134 167 163 152 135 131 138 145 152 161 169 167 170 170 171 173 174 174 171 168 166 163 165 165 161 166 157 151 161 160 148 145 173 156 162 167 144 145 172 137 120 127 118 113 99 122 131
195 227 152 167 181 202 120 120 151 159 156 171 181 175 177 177 177 176 177 176 175 173 170 168 167 170 165 165 165 165 171 145 168 164 183 167 187 151 150 150 137 137 134 172 141 130 144 95 115
218 217 250 159 151 176 160 133 155 172 185 172 181 187 193 185 179 178 182 181 178 176 174 174 171 177 170 171 166 171 175 169 154 166 162 183 169 190 150 169 166 166 136 120 113 96 111 109 5
256 215 173 95 148 222 135 138 142 172 160 169 182 180 198 194 179 179 179 179 183 182 180 180 179 183 176 179 180 185 185 181 179 188 171 181 180 193 188 131 172 186 163 175 173 203 165 107 9
237 218 140 166 178 233 167 135 140 165 158 169 177 195 193 205 181 179 182 182 184 187 186 185 183 189 184 189 191 200 194 130 168 184 171 183 182 181 172 191 215 185 183 163 133 161 255 151 66
206 231 153 214 190 194 196 159 166 154 168 173 177 192 208 212 182 182 188 187 185 184 184 186 185 190 191 190 189 197 191 193 190 186 182 174 176 186 193 186 174 165 219 160 169 204 186 120 135
224 170 205 191 217 202 195 123 306 152 161 174 172 206 197 203 196 191 189 194 195 183 185 187 187 190 191 198 187 201 199 233 151 189 182 185 194 189 179 198 202 187 181 195 192 196 189 178 164
281 164 197 223 238 239 219 192 204 167 173 178 188 188 208 191 209 206 194 194 198 187 190 191 194 198 193 202 200 196 215 216 202 199 167 192 196 190 181 190 203 198 215 203 202 211 214 214 209
171 194 193 209 218 226 219 161 102 73 58 102 158 208 198 195 189 198 202 199 195 196 193 193 201 202 205 208 208 216 217 227 231 201 210 202 193 190 216 226 198 205 202 200 196 219 194 231 211
205 208 204 193 206 207 207 138 118 122 116 80 31 7 243 209 202 193 197 204 196 198 194 197 199 207 210 212 217 220 217 222 222 216 205 202 209 196 220 206 216 193 215 205 217 223 216 232 227
192 234 227 271 208 211 133 91 125 115 94 66 49 7 9 241 190 200 201 193 200 196 193 196 200 208 210 215 217 222 225 213 214 217 222 234 233 216 186 202 203 205 209 214 228 206 238 220 215
269 226 239 245 249 213 134 160 147 140 97 67 41 32 24 12 210 176 191 203 208 192 192 195 200 205 208 210 217 220 219 223 213 213 218 217 230 242 255 187 222 210 214 215 213 216 231 224 216
213 241 244 246 260 213 154 117 114 115 99 88 59 41 31 40 44 58 113 216 213 193 191 194 200 206 210 212 214 216 218 219 220 219 221 224 221 220 250 227 221 223 227 231 230 207 227 244 223
301 242 218 243 230 271 2 95 100 132 123 99 80 57 51 48 46 53 51 23 111 148 171 198 197 208 213 216 216 219 220 219 223 225 224 226 229 226 221 236 235 224 231 232 236 238 226 233 236